Location: Astronight Observatory
(42.6003°N, 71.2981°W)
Time: 09:39:49
(UTC-04:00)

Daily predictions for brighter satellites

Satellite Brightness Start Highest point End
(mag) Time Altitude Azimuth Time Altitude Azimuth Time Altitude Azimuth
Cosmos 1437 Rocket 2.8 19:25:34 10° S 19:29:33 71° E 19:33:38 10° NNE
HJ-1C 3.7 19:26:59 10° SSE 19:30:15 46° ENE 19:33:32 10° N
Cosmos 1937 Rocket 3.5 19:25:56 10° S 19:31:09 73° ESE 19:36:27 10° NNE
Abrixas 3.3 19:30:08 10° NW 19:32:49 37° NNE 19:35:30 10° E
SeaSat 1 2.5 19:28:17 10° SE 19:33:11 74° ENE 19:38:08 10° NNW
Cosmos 1378 3.1 19:30:44 10° N 19:34:30 76° E 19:38:14 10° SSE
Cosmos 1833 Rocket 4.0 19:30:24 10° N 19:34:47 23° NE 19:39:09 10° ESE
SJ-6B 2.7 19:33:20 10° SSE 19:37:04 89° WSW 19:40:49 10° NNW
SL-27 R/B 2.5 19:33:39 10° NNW 19:37:12 59° ENE 19:40:46 10° SSE
Cosmos 1821 Rocket 4.0 19:31:08 10° S 19:37:30 78° E 19:43:52 10° N
Cosmos 1812 Rocket 3.5 19:34:01 10° S 19:38:24 69° E 19:42:47 10° NNE
Cosmos 1818 4.3 19:34:05 10° NNW 19:39:08 37° NE 19:44:09 10° ESE
Cosmos 2278 Rocket 2.4 19:33:54 10° S 19:39:21 51° ESE 19:44:50 10° NE
FENGYUN 3A 3.6 19:35:23 10° SSE 19:40:47 75° ENE 19:46:11 10° N
USA 186 2.9 19:43:35 13° E 19:44:22 14° ENE 19:45:41 10° NE
BREEZE-M DEB (TANK) 4.0 19:43:32 10° NW 19:45:25 18° N 19:47:14 10° NE
GP-B 4.4 19:43:31 10° SE 19:46:51 21° ENE 19:50:13 10° NNE
COSMOS 2487 4.2 19:45:36 10° NNE 19:47:59 17° ENE 19:49:42 13° E
Meteor 1-4 Rocket 3.6 19:47:49 10° SSE 19:50:38 23° E 19:53:28 10° NE
Helios 1B rocket 3.5 19:47:20 10° NE 19:50:42 24° E 19:54:02 10° SSE
Resurs 01 Rocket 1.6 19:46:53 10° SSE 19:51:13 64° ENE 19:55:37 10° N
FengYun 1-2 T 4.3 19:46:03 10° SSE 19:51:37 85° ENE 19:57:17 10° NNW
Cosmos 2297 4.4 19:49:12 10° SSE 19:54:06 31° ESE 19:59:04 10° NE
ATLAS 5 CENTAUR R/B 3.2 19:52:18 10° SSE 19:55:10 16° ESE 19:58:10 10° ENE
Cosmos 1605 Rocket 4.1 19:49:26 10° S 19:55:33 59° E 20:01:47 10° NNE
Cosmos 1544 3.5 19:53:20 10° SSE 19:56:43 38° E 20:00:09 10° NNE
H-2A R/B 2.7 19:55:35 10° SSE 19:59:27 80° ENE 20:03:25 10° N
Lacrosse 4 Rocket 3.0 19:56:09 10° WSW 19:59:55 36° NW 20:03:42 10° NNE
Cosmos 1758 3.8 19:56:35 10° SSE 20:00:16 37° E 20:03:58 10° NNE
Helios 1A 3.5 19:57:13 10° SE 20:01:04 38° ENE 20:04:58 10° N
Meteor 1-24 Rocket 4.0 19:57:46 10° NNW 20:03:14 72° W 20:08:53 10° S
Cosmos 2123 Rocket 4.1 20:02:01 10° N 20:08:23 88° W 20:14:39 10° S
Cosmos 2082 Rocket 2.7 20:03:16 10° NNW 20:08:41 43° ENE 20:12:41 17° ESE
Cosmos 1953 2.6 20:05:09 10° SSE 20:09:01 44° E 20:12:54 10° NNE
Cosmos-2242 4.0 20:07:20 14° SE 20:10:07 25° E 20:13:37 10° NNE
Cosmos 1939 Rocket 4.0 20:10:56 20° ESE 20:12:33 27° ENE 20:16:03 10° NNE
Cosmos 372 Rocket 4.5 20:08:01 10° SSE 20:12:35 34° ESE 20:17:14 10° NE
ALOS 3.3 20:10:38 10° S 20:15:08 47° W 20:19:40 10° NNW
Cosmos 1867 3.9 20:10:23 10° S 20:15:28 42° ESE 20:20:36 10° NE
USA 215 3.7 20:09:43 10° ENE 20:15:47 39° SE 20:21:46 10° SSW
Cosmos 158 Rocket 4.3 20:16:59 10° N 20:21:54 46° ENE 20:24:50 23° SE
Spot 2 Rocket 3.9 20:20:12 10° S 20:25:16 65° WSW 20:30:22 10° NNW
Cosmos 1271 Rocket 3.5 20:25:41 30° ESE 20:26:30 32° E 20:30:07 10° NNE
Cosmos 1153 Rocket 4.5 20:21:09 10° S 20:27:30 72° E 20:33:54 10° NNE
Cosmos 2061 Rocket 4.5 20:22:20 10° SSE 20:28:11 39° E 20:34:05 10° NNE
Lacrosse 5 rocket 2.5 20:26:24 10° NNW 20:29:50 27° NNE 20:30:54 23° ENE
CZ-4B DEB 2.7 20:31:09 47° ESE 20:31:42 57° ENE 20:34:45 10° N
Timation 2 Rocket 4.1 20:25:28 10° NNW 20:31:43 55° ENE 20:35:07 26° SE
Resurs 1-3 4.4 20:29:55 10° S 20:34:11 51° W 20:38:28 10° NNW
Spot 1 4.3 20:32:25 10° SSE 20:36:57 85° WSW 20:41:53 10° NNW
CZ-4B DEB 4.4 20:38:48 29° SSE 20:40:32 90° S 20:44:08 10° NNW
RESURS DK-1 4.4 20:37:07 10° NW 20:40:34 26° WSW 20:44:00 10° SSW
BREEZE-M DEB (TANK) 3.5 20:38:43 10° WSW 20:41:49 81° NNW 20:51:12 10° ENE
H-2A R/B 4.0 20:43:27 13° NE 20:43:27 13° NE 20:45:42 10° NNE
Envisat 2.9 20:40:01 23° SSE 20:43:15 71° ENE 20:48:19 10° N
Cosmos 1674 2.5 20:42:24 10° N 20:46:12 82° E 20:47:22 43° SSE
Cosmos 1408 Rocket 3.5 20:43:30 10° N 20:48:00 87° ENE 20:50:27 27° S
USA 267 4.2 20:45:27 21° ENE 20:49:05 36° NNE 20:54:55 10° NW
Meteor 1-21 Rocket 4.4 20:44:10 10° NNW 20:50:00 78° W 20:55:53 10° S
Lacrosse 5 2.9 20:45:59 10° WSW 20:50:51 45° NW 20:55:44 10° NE
Cosmos 1459 Rocket 3.9 20:45:00 10° S 20:51:10 64° E 20:57:18 10° NNE
Cosmos 1125 Rocket 3.6 20:46:33 10° SSW 20:51:45 77° WNW 20:56:59 10° NNE
Cosmos 2344 4.4 20:46:16 10° WSW 20:53:46 54° NW 21:02:30 10° NNE
BREEZE-M DEB (TANK) 3.4 20:51:02 10° SW 20:54:37 57° SE 21:06:42 10° ENE
Cosmos 1048 Rocket 4.0 20:49:49 10° NNW 20:54:57 77° WSW 20:57:43 28° S
Cosmos 2173 Rocket 3.9 20:49:34 10° S 20:55:40 68° E 21:01:53 10° NNE
SPOT 5 4.0 20:56:29 30° ENE 20:56:30 30° ENE 21:01:06 10° N
YAOGAN 6 3.6 20:59:41 36° NNE 20:59:41 36° NNE 21:02:17 10° N
Tiangong 1 3.8 21:02:31 10° SW 21:03:03 11° SW 21:03:03 11° SW
ERS-1 Rocket 3.0 21:03:25 53° ESE 21:04:13 61° ENE 21:09:12 10° N
Abrixas 4.5 21:05:24 10° WNW 21:06:57 25° W 21:06:57 25° W
Cosmos 1470 3.2 21:12:27 38° SW 21:13:47 62° W 21:17:45 10° N
Cosmos 2151 4.3 21:11:31 10° N 21:13:55 28° NNE 21:13:55 28° NNE
Cosmos 1340 Rocket 3.0 21:13:08 10° NNW 21:17:06 69° W 21:17:06 69° W
Cosmos 1833 Rocket 3.0 21:13:36 10° NNW 21:19:09 61° WSW 21:21:14 37° S
Terra 4.2 21:21:37 12° NE 21:21:37 12° NE 21:22:12 10° NNE
NOAA 11 4.3 21:22:01 56° ENE 21:22:01 56° ENE 21:27:22 10° N
H-2A R/B (2) 4.2 21:19:05 10° SW 21:20:59 16° S 21:20:59 16° S
COSMOS 2487 4.1 21:20:21 10° NW 21:23:34 31° WSW 21:23:40 31° WSW
Cosmos 2278 Rocket 4.3 21:18:59 10° WSW 21:23:42 26° NW 21:28:27 10° N
MetOp-B 4.2 21:24:40 61° ENE 21:24:40 61° ENE 21:29:47 10° N
Helios 1B rocket 4.4 21:22:24 10° N 21:25:59 29° WNW 21:29:32 10° SW
Cosmos 2251 Rocket 3.6 21:21:29 10° NNW 21:26:30 62° NE 21:26:30 62° NE
Cosmos 2016 Rocket 3.8 21:24:19 34° S 21:27:13 86° E 21:33:25 10° N
Cosmos 1733 4.4 21:27:32 38° WSW 21:28:11 42° WNW 21:31:55 10° N
Meteor 2-17 Rocket 4.3 21:25:50 38° S 21:28:23 86° E 21:34:34 10° N
CZ-3B DEB 3.8 21:24:29 10° W 21:31:53 32° NNW 21:34:48 17° NNE
Cosmos 1725 Rocket 3.8 21:34:40 68° E 21:34:40 68° E 21:40:46 10° NNE
ATLAS 5 CENTAUR R/B 2.1 21:34:29 10° SW 21:39:10 64° NW 21:44:18 10° NNE
Meteor 1-11 4.1 21:38:47 10° N 21:44:04 81° N 21:44:04 81° N
Tsikada Rocket 3.8 21:43:07 10° N 21:49:15 84° ENE 21:49:15 84° ENE
Cosmos 2082 Rocket 3.8 21:47:45 10° NW 21:52:33 29° WSW 21:54:34 23° SW
USA 215 3.5 21:52:30 10° NE 21:58:59 65° NW 22:05:26 10° WSW
ARGOS 3.8 22:10:26 51° NW 22:10:26 51° NW 22:14:30 10° NNW
Lacrosse 5 rocket 3.9 22:05:31 10° WNW 22:06:37 17° WNW 22:06:37 17° WNW
H-2A R/B 3.4 22:24:04 37° NNW 22:24:04 37° NNW 22:27:12 10° NNW
USA 267 3.5 22:32:47 64° NW 22:32:47 64° NW 22:38:12 10° NW
Lacrosse 5 4.2 22:31:29 10° WNW 22:34:57 18° NNW 22:36:06 17° N
Terra 4.4 23:00:29 17° NNW 23:00:29 17° NNW 23:01:35 10° NNW
